sat.trackr.live / text

‹ back to catalog

STARLINK-11376 [DTC]

NORAD 61575 · 2024-187B

PAYLOAD ACTIVE UNKNOWN

§ Identity

Operator
Country
US
Launch date
2024-10-18
Launch site
AFETR
Launch vehicle
Mass (kg)
RCS (m²)

Purposes: comms

External: N2YO · Heavens-Above · Gunter

§ Orbital elements

Epoch: 2026-09-21T16:22:22.171584Z

Period
91.74 min
Inclination
53.1597°
Eccentricity
0.0000869
Mean motion
15.69706250 rev/d
Perigee alt
359.2 km
Apogee alt
360.3 km
Semi-major
6,737.9 km
B*
1.3529e-5
RAAN
50.0497°
Arg perigee
83.4663°
Mean anomaly
276.6454°
Rev number
11,148

§ Raw data

STARLINK-11376 [DTC]1 61575U 24187B   26264.68220106  .00001051  00000+0  13529-4 0  99912 61575  53.1597  50.0497 0000869  83.4663 276.6454 15.69706250111484

JSON: /api/v1/satellites/61575 · /tle

For live sub-satellite position, see the globe view (requires WebGL).

§ Visibility from observer

Set your observer location to see the next 7 days of passes ≥ 10°. The values pass through the URL so the page stays shareable.

No JS? Fill the form by hand. The geolocation button needs JavaScript.